Flag for U.S.A. Weather past 2 weeks in Alpena, Michigan, U.S.A.

Now
56 °F

Sunny.


Feels Like: 52 °F
Forecast: 40 / 53 °F
Wind: 15 mph from Northeast

Location: Alpena County Regional Airport

Current Time: Apr 18, 2015 at 1:22:07 PM

Latest Report: Apr 18, 2015 at 12:54 PM


Visibility: 10 mi

Pressure: 30.21 "Hg

Humidity: 39%

Dew point: 31 °F

Location of AlpenaLocation

Historic Weather in Alpena — Graph

°F

Alpena temperature yesterday

Maximum temperature yesterday: 68 °F (at 12:54 PM)
Minimum temperature yesterday: 37 °F (at 1:54 AM)
Average temperature yesterday: 51 °F

Past Weeks' High & Low Weather Summary

 TemperatureHumidityPressure
High71 °F (Apr 12, 4:54 PM)100% (Apr 9, 5:54 PM)30.47 "Hg (Apr 9, 5:54 PM)
Low19 °F (Apr 4, 5:54 AM)14% (Apr 14, 3:54 PM)29.29 "Hg (Apr 10, 7:54 AM)
Average40 °F65%30.09 "Hg
* Reported Apr 3 11:54 AM — Apr 18 11:54 AM, Alpena, Weather by CustomWeather, © 2015

Note: Actual official high and low records may vary slightly from our data, if they occured in-between our weather recording intervals... More about our weather records

Advertising

Alpena weather history for previous 24 hours

 ConditionsComfort  
Time TempWeatherWind HumidityBarometerVisibility
11:54 AM
Sat, Apr 18
53 °FSunny.12 mph47%30.21 "Hg10 mi
10:54 AM52 °FSunny.16 mph47%30.19 "Hg10 mi
9:54 AM51 °FSunny.17 mph44%30.15 "Hg10 mi
8:54 AM51 °FSunny.12 mph46%30.13 "Hg10 mi
7:54 AM47 °FSunny.13 mph54%30.09 "Hg10 mi
6:54 AM46 °FClear.8 mph66%30.04 "Hg10 mi
5:54 AM45 °FClear.3 mph74%30.01 "Hg10 mi
4:54 AM46 °FClear.6 mph71%29.95 "Hg10 mi
3:54 AM40 °FClear.3 mph83%29.96 "Hg10 mi
2:54 AM36 °FClear.No wind92%29.97 "Hg10 mi
1:54 AM38 °FPassing clouds.No wind86%29.98 "Hg10 mi
12:54 AM39 °FClear.No wind82%29.98 "Hg10 mi
11:54 PM
Fri, Apr 17
43 °FClear.No wind76%29.99 "Hg10 mi
10:54 PM41 °FClear.3 mph82%30.00 "Hg10 mi
9:54 PM44 °FClear.No wind76%30.02 "Hg10 mi
8:54 PM51 °FSunny.No wind61%30.02 "Hg10 mi
7:54 PM56 °FSunny.3 mph51%30.01 "Hg10 mi
6:54 PM60 °FSunny.7 mph46%30.01 "Hg10 mi
5:54 PM61 °FSunny.8 mph44%29.99 "Hg10 mi
4:54 PM61 °FScattered clouds.9 mph44%29.99 "Hg10 mi
3:54 PM61 °FScattered clouds.12 mph44%30.00 "Hg10 mi
2:54 PM65 °FSunny.9 mph44%30.01 "Hg10 mi
1:54 PM64 °FPartly sunny.10 mph45%30.03 "Hg10 mi
Weather by CustomWeather, © 2015

See weather overviewHow to use our weather pages